[[{"header":{"parameterUnit":"m.s-1","parameterCategory":1,"la1":30.2992,"la2":30.254,"lo1":-89.0895,"lo2":-89.0443,"dy":0.0025,"dx":0.0025,"nx":19,"ny":19,"refTime":"2026-04-30T03:00:00:Z","depth":0,"parameterNumber":2,"parameterNumberName":"U-component_of_WINDS"},"data":[0,0,0,1.1612,1.1616,1.1787,1.1788,1.2022,1.2025,0,0,0,0,0,0,0,0,0,0,0,1.1565,1.1567,1.1612,1.1616,1.1787,1.1788,1.2022,1.2025,0,0,0,0,0,0,0,0,0,0,0,1.1565,1.1566,1.1568,1.1617,1.1787,1.1788,1.2021,1.1888,0,0,0,0,0,0,0,0,0,0,1.172,1.1679,1.1566,1.1569,1.1618,1.1787,1.1788,1.1882,1.1897,1.195,0,1.1992,0,1.2011,1.2041,1.2041,0,0,0,1.1616,1.1667,1.1708,1.1569,1.1619,1.1786,1.171,1.189,1.1907,1.1969,1.1995,1.2004,1.2015,1.2042,1.2043,1.2335,1.2337,0,0,1.1606,1.16,1.1696,1.1719,1.1687,1.1704,1.1715,1.19,1.1931,1.1996,1.2009,1.2019,1.2044,1.2046,1.2334,1.2336,0,0,0,1.158,1.1594,1.163,1.171,1.1739,1.1709,1.1722,1.1923,1.1935,1.2012,1.2022,1.2045,1.2048,1.2333,1.2335,1.2396,0,0,0,1.1574,1.1578,1.1626,1.1625,1.1735,1.1832,1.174,1.1922,1.1943,1.2021,1.2045,1.205,1.2331,1.2334,1.2391,1.2429,0,0,0,1.1553,1.1575,1.16,1.1624,1.1696,1.1829,1.1851,1.1926,1.1949,1.2042,1.2051,1.233,1.2333,1.2387,1.2421,1.2504,0,0,0,1.1531,1.1657,1.1601,1.1745,1.1694,1.1862,1.185,1.1977,1.2064,1.2046,1.2331,1.2334,1.2385,1.2417,1.2499,1.2575,1.2604,0,0,1.1687,1.1675,1.176,1.1715,1.189,1.1837,1.2024,1.2112,1.213,1.2268,1.2275,1.2393,1.2421,1.2503,1.2766,1.279,0,0,0,1.1807,1.1869,1.1916,1.1994,1.2059,1.212,1.2179,1.2211,1.2327,1.2197,1.2443,1.2461,1.2509,1.2546,1.2566,1.261,1.235,1.2349,1.2349,1.2023,1.2032,1.2174,1.2203,1.2279,1.2335,1.24,1.2454,1.2447,1.2504,1.2547,1.2704,1.2747,1.2762,1.2807,1.2584,1.2585,1.2585,1.2585,1.2254,1.2344,1.2322,1.2452,1.2463,1.2575,1.2634,1.2624,1.2733,1.2674,1.2718,1.2656,1.2787,1.2828,1.259,1.2589,1.2589,1.2588,1.2588,1.24,1.2444,1.2475,1.2586,1.2672,1.2699,1.2802,1.2809,1.2818,1.286,1.2907,1.2906,1.2909,1.288,1.2881,1.2881,1.2882,1.2882,1.2883,1.254,1.2573,1.2656,1.2731,1.2781,1.2847,1.2902,1.2954,1.3013,1.3011,1.3011,1.3,1.2795,1.2746,1.2891,1.289,1.2889,1.2888,1.2887,1.2778,1.2723,1.2852,1.2901,1.299,1.3075,1.3079,1.3182,1.3225,1.3277,1.3253,1.3099,1.3092,1.3076,1.3036,1.3248,1.3248,1.3248,1.3248,1.2904,1.2897,1.3028,1.3106,1.3183,1.3198,1.3348,1.3391,1.3429,1.3458,1.3427,1.3372,1.3355,1.3358,1.3336,1.3299,1.3573,1.3574,1.3574,1.3053,1.3052,1.3177,1.3205,1.3274,1.3334,1.3476,1.3571,1.3603,1.3587,1.3481,1.3467,1.3379,1.3349,1.3337,1.3303,1.3235,0,0]},{"header":{"parameterUnit":"m.s-1","parameterCategory":1,"la1":30.2992,"la2":30.254,"lo1":-89.0895,"lo2":-89.0443,"dy":0.0025,"dx":0.0025,"nx":19,"ny":19,"refTime":"2026-04-30T03:00:00:Z","depth":0,"parameterNumber":3,"parameterNumberName":"V-component_of_WINDS"},"data":[0,0,0,3.7993,3.7996,3.8116,3.8117,3.8273,3.8274,0,0,0,0,0,0,0,0,0,0,0,3.7964,3.7965,3.7993,3.7996,3.8116,3.8117,3.8272,3.8274,0,0,0,0,0,0,0,0,0,0,0,3.7963,3.7965,3.7966,3.7997,3.8116,3.8117,3.8272,3.818,0,0,0,0,0,0,0,0,0,0,3.8062,3.8042,3.7964,3.7966,3.7998,3.8116,3.8117,3.8175,3.8185,3.8221,0,3.8257,0,3.8268,3.8285,3.8286,0,0,0,3.7991,3.8033,3.806,3.7966,3.7999,3.8116,3.8061,3.8181,3.8192,3.8234,3.8259,3.8265,3.8271,3.8286,3.8287,3.8516,3.8517,0,0,3.7985,3.7987,3.8053,3.8068,3.8054,3.8057,3.8064,3.8188,3.8214,3.826,3.8269,3.8274,3.8287,3.8289,3.8514,3.8516,0,0,0,3.7969,3.7983,3.8007,3.8062,3.8084,3.806,3.8069,3.8208,3.8216,3.827,3.8275,3.8288,3.829,3.8513,3.8515,3.8583,0,0,0,3.7965,3.7974,3.8005,3.8008,3.8082,3.8148,3.8087,3.8207,3.8221,3.8275,3.8288,3.8292,3.8511,3.8514,3.8578,3.8614,0,0,0,3.7954,3.7973,3.7992,3.8008,3.806,3.8146,3.8161,3.821,3.8225,3.8286,3.8292,3.8511,3.8513,3.8574,3.8607,3.8675,0,0,0,3.7942,3.8051,3.7993,3.8116,3.8059,3.8189,3.816,3.8256,3.8317,3.8289,3.8512,3.8515,3.8572,3.8603,3.867,3.8732,3.8759,0,0,3.8081,3.8068,3.814,3.8092,3.8233,3.817,3.832,3.8372,3.8373,3.8467,3.8472,3.858,3.8607,3.8674,3.8907,3.8928,0,0,0,3.8184,3.8236,3.8273,3.8332,3.8375,3.8414,3.8442,3.8461,3.8541,3.8423,3.8623,3.8639,3.8678,3.8707,3.8725,3.8758,3.8529,3.8528,3.8528,3.8384,3.8382,3.85,3.8512,3.8569,3.8597,3.8642,3.867,3.8651,3.8697,3.8725,3.8868,3.8902,3.8916,3.895,3.8758,3.8759,3.8759,3.8759,3.8587,3.8659,3.863,3.8734,3.873,3.8816,3.8845,3.8828,3.8905,3.8847,3.8881,3.8817,3.8939,3.8968,3.8764,3.8763,3.8763,3.8762,3.8762,3.8717,3.8751,3.8773,3.8857,3.8921,3.8927,3.9003,3.8996,3.8989,3.9023,3.905,3.9049,3.9046,3.9036,3.9037,3.9037,3.9038,3.9038,3.9038,3.8844,3.8866,3.8933,3.8987,3.9023,3.9068,3.9096,3.9129,3.9164,3.9152,3.9153,3.9126,3.8952,3.8908,3.9046,3.9045,3.9044,3.9043,3.9043,3.9049,3.9001,3.9104,3.914,3.9201,3.9264,3.9253,3.9322,3.9349,3.9385,3.9352,3.9225,3.921,3.9195,3.9159,3.9353,3.9353,3.9353,3.9353,3.9158,3.9151,3.9253,3.9311,3.9366,3.9367,3.9479,3.9499,3.9513,3.9528,3.9499,3.9449,3.9435,3.9429,3.9409,3.9375,3.962,3.962,3.9621,3.9284,3.9281,3.938,3.9395,3.9442,3.948,3.9585,3.9649,3.9654,3.9631,3.9539,3.9528,3.9449,3.9423,3.9399,3.9369,3.9306,0,0]}]]